Regional Weather Roundup
Issued by NWS Sioux Falls, SD

Home | Current Version | Previous Version | Graphics & Text | Print | Product List | Glossary Off
Versions: 1 2 3 4 5 6 7 8 9 10 11 12 13 14 15 16 17 18 19 20 21 22 23 24 25 26 27 28 29 30 31 32 33 34 35 36 37 38 39 40 41 42 43 44 45 46 47 48 49 50

000
ASUS43 KFSD 172202
RWRFSD

WEATHER ROUNDUP FOR SE SOUTH DAKOTA/SW MINNESOTA/NW IOWA
NATIONAL WEATHER SERVICE SIOUX FALLS SD
400 PM CST WED DEC 17 2014

NOTE: "FAIR" INDICATES FEW OR NO CLOUDS BELOW 12,000 FEET WITH NO
SIGNIFICANT WEATHER AND OR OBSTRUCTIONS TO VISIBILITY.


SDZ038>040-050-052>070-172300-
SOUTHEAST SOUTH DAKOTA

CITY           SKY/WX    TMP DP  RH WIND       PRES   REMARKS
CHAMBERLAIN    NOT AVBL
HURON          PTCLDY    14   9  80 E8        30.26F WCI   3
MADISON        FAIR      16  16 100 E5        30.23F WCI   9
MITCHELL       MOCLDY    17  13  84 SE5       30.26S WCI  10
SIOUX FALLS    MOCLDY    18   9  68 NE6       30.25S WCI  10
WINNER           N/A    N/A N/A N/A MISG      30.14
YANKTON        CLEAR     18  10  73 CALM      30.28R
$$

MNZ071-072-080-081-089-090-097-098-172300-
SOUTHWEST MINNESOTA

CITY           SKY/WX    TMP DP  RH WIND       PRES   REMARKS
FAIRMONT       PTCLDY    19  12  73 N6        30.27S WCI  11
JACKSON        PTCLDY    21  14  73 NW5       30.26R WCI  15
LUVERNE        PTCLDY    23  16  74 NE5       30.26S WCI  17
MARSHALL       CLEAR     12   9  85 NW3       30.29S
MONTEVIDEO     CLEAR     18  14  86 N3        30.30F
REDWOOD FALLS  CLEAR     18  12  77 NW7       30.29S WCI   9
TRACY          CLEAR     14  11  87 CALM      30.28S
WINDOM         CLEAR     16  12  86 NW5       30.27R WCI   9
WORTHINGTON    CLEAR     19  12  73 N5        30.25S WCI  13
$$

IAZ001>003-012>014-020>022-031-032-NEZ013-014-SDZ071-172300-
NORTHWEST IOWA

CITY           SKY/WX    TMP DP  RH WIND       PRES   REMARKS
DENISON        PTCLDY    27  18  69 CALM      30.24S
ESTHERVILLE    CLEAR     21  14  74 NW7       30.26S WCI  12
SIOUX CITY     CLEAR     26  15  63 E5        30.28S WCI  20
SPENCER        CLEAR     25  15  66 N6        30.26S WCI  18
$$

ABBREVIATIONS USED IN REMARKS
   TC - TEMPERATURE IN CELSIUS
  WCI - WIND CHILL INDEX
   HX - HEAT INDEX
  VSB - VISIBILITY




USA.gov is the U.S. government's official web portal to all federal, state and local government web resources and services.